[[{"header":{"parameterUnit":"m.s-1","parameterCategory":1,"la1":30.2991,"la2":30.254,"lo1":-89.0895,"lo2":-89.0444,"dy":0.0017,"dx":0.0017,"nx":28,"ny":28,"refTime":"2023-08-16T21:00:00:Z","depth":0,"parameterNumber":2,"parameterNumberName":"U-component_of_WINDS"},"data":[0,0,0,0,0,0,0,0,0,0,0,0,0,0,0,0,0,0,0,0,0,0,0,0,0,0,0,0,0,0,0,0,0,0,0,0,0,0,0,0,0,0,0,0,0,0,0,0,0,0,0,0,0,0,0,0,0,0,-0.0023,-0.0024,0,-0.012,-0.0121,-0.0122,-0.0243,-0.0245,-0.0247,-0.0249,-0.0343,-0.0344,-0.0344,0,0,0,0,0,0,0,0,0,0,0,0,0,0.006,0.0059,-0.0023,-0.0024,-0.0025,-0.0119,-0.0121,-0.0122,-0.0243,-0.0245,-0.0248,-0.025,-0.0343,-0.0343,-0.0344,0,0,0,0,0,0,0,0,0,0,0,0,0,0.0,0.0059,-0.0022,-0.0097,-0.0105,-0.0119,-0.0121,-0.0122,-0.0243,-0.0245,-0.0248,-0.0251,-0.0342,-0.0343,-0.0344,-0.0292,0,0,-0.0347,-0.0348,0,0,0,0,0,0,0,0,0.0004,-0.0003,-0.0085,-0.0092,-0.0101,-0.0173,-0.0126,-0.0179,-0.0242,-0.019,-0.0249,-0.0253,-0.0283,-0.0289,-0.0301,-0.0296,-0.03,-0.0347,-0.0348,-0.0349,-0.0349,0,0,0,0,0,0,0,0.0008,0.0001,-0.0061,-0.0086,-0.0095,-0.0125,-0.0136,-0.0137,-0.0219,-0.0195,-0.0204,-0.0214,-0.0288,-0.03,-0.0304,-0.0302,-0.0347,-0.0348,-0.0349,-0.0349,-0.0259,-0.0256,0,0,0,0,0,0,0.0023,0.0005,-0.0058,-0.0064,-0.0055,-0.0124,-0.0137,-0.0146,-0.0219,-0.0233,-0.0211,-0.0219,-0.0297,-0.0303,-0.0308,-0.025,-0.0349,-0.0349,-0.035,-0.0262,-0.0258,-0.0255,0,0,0,0,0,0,0.0025,0.0018,-0.0054,-0.0032,-0.0044,-0.0122,-0.0132,-0.0147,-0.0158,-0.0232,-0.0247,-0.0208,-0.0299,-0.0306,-0.0295,-0.0255,-0.035,-0.0351,-0.0265,-0.0261,-0.0257,-0.0135,0,0,0,0,0,0,0.0028,0.002,0.0039,-0.0031,-0.0044,-0.004,-0.0129,-0.0146,-0.016,-0.0172,-0.0233,-0.0246,-0.0302,-0.0293,-0.0296,-0.0258,-0.0352,-0.0269,-0.0263,-0.0258,-0.0142,-0.0127,-0.0113,0,0,0,0,0,0.0031,0.0078,0.004,0.0033,-0.0022,-0.0037,-0.0045,-0.0112,-0.0157,-0.0138,-0.0186,-0.0244,-0.026,-0.0291,-0.0296,-0.0257,-0.0272,-0.0265,-0.0258,-0.0149,-0.013,-0.0113,0,0,0,0,0,0,0.0157,0.0068,0.0025,0.005,0.0015,-0.0058,-0.0036,-0.009,-0.0112,-0.0121,-0.0203,-0.0216,-0.0194,-0.0226,-0.0258,-0.0211,-0.0275,-0.0268,-0.019,-0.0172,-0.0158,-0.0149,-0.0352,0,0,0,0,0,0.0187,0.0181,0.0104,0.0134,0.0118,0.0044,0.0035,-0.0015,-0.0054,-0.0069,-0.0116,-0.0151,-0.0164,-0.0171,-0.0187,-0.015,-0.0164,-0.0126,-0.0111,-0.0098,-0.009,-0.0072,-0.0056,-0.0233,-0.0233,-0.0233,0,0,0.0251,0.0201,0.0203,0.0158,0.0124,0.0121,0.0032,0.0033,0.003,-0.0068,-0.006,-0.0097,-0.0141,-0.0116,-0.0108,-0.0142,-0.0046,-0.009,-0.0079,-0.0078,-0.0064,-0.0047,-0.0032,-0.0228,-0.0229,-0.023,0,0,0.0365,0.0326,0.0347,0.0314,0.0264,0.0214,0.0219,0.0153,0.0125,0.0131,0.0057,0.0052,0.0031,0.0002,-0.0015,0.0085,0.0031,0.0082,0.0161,0.018,0.0194,0.0206,0.0244,0.0258,0.0089,0.0089,0.0089,0,0.0452,0.0443,0.0365,0.037,0.0353,0.0259,0.0281,0.0253,0.0201,0.0192,0.0153,0.0124,0.0087,0.0104,0.0129,0.0117,0.0121,0.0091,0.0197,0.0209,0.0219,0.0254,0.0268,0.0095,0.0095,0.0094,0.0093,0,0.0552,0.0547,0.0569,0.0519,0.0504,0.0517,0.0443,0.0436,0.0387,0.0342,0.0348,0.03,0.0273,0.0272,0.0225,0.0282,0.0263,0.0212,0.0147,0.0244,0.0276,0.0288,0.0105,0.0103,0.0101,0.0099,0,0,0.0748,0.0651,0.0662,0.0638,0.0573,0.0568,0.0576,0.0547,0.0544,0.051,0.0517,0.0499,0.045,0.0431,0.0379,0.0395,0.0479,0.0342,0.0339,0.0372,0.0541,0.0583,0.06,0.0441,0.0443,0.0445,0.0546,0,0.0853,0.0862,0.0791,0.0819,0.0814,0.0723,0.073,0.0693,0.0649,0.0639,0.059,0.058,0.0516,0.0504,0.0515,0.0467,0.0513,0.0458,0.0449,0.045,0.0467,0.0616,0.066,0.0758,0.0558,0.056,0.0561,0,0.0979,0.0949,0.0977,0.091,0.0905,0.0913,0.088,0.087,0.0825,0.0792,0.0768,0.0708,0.0712,0.0646,0.0652,0.0616,0.0607,0.0583,0.0585,0.0585,0.0515,0.0623,0.0787,0.0804,0.0579,0.0578,0.0577,0,0.1123,0.1089,0.1101,0.1083,0.1004,0.1012,0.098,0.0931,0.0917,0.0888,0.0879,0.0851,0.0838,0.0818,0.0752,0.0709,0.0766,0.0694,0.0741,0.0743,0.0761,0.0761,0.0929,0.0749,0.0749,0.0748,0.0748,0,0.125,0.1271,0.1165,0.1173,0.1193,0.1111,0.1134,0.1093,0.1049,0.1049,0.0967,0.0969,0.0879,0.087,0.0818,0.0832,0.0825,0.08,0.0787,0.081,0.0814,0.0806,0.0799,0.0752,0.0751,0.0751,0.075,0,0.1416,0.1345,0.1353,0.1276,0.1257,0.1277,0.1211,0.1216,0.1165,0.1165,0.1161,0.1082,0.1068,0.0998,0.0967,0.0932,0.0965,0.0936,0.0981,0.0973,0.1024,0.1022,0.1197,0.1216,0.1021,0.1023,0.1024,0,0.1504,0.1518,0.1442,0.1435,0.1405,0.1395,0.138,0.1298,0.1286,0.1233,0.1245,0.1223,0.1201,0.1182,0.1124,0.11,0.1071,0.1134,0.1068,0.109,0.1076,0.1078,0.1079,0.115,0.1153,0.1155,0.1157,0,0.1669,0.1633,0.1613,0.1582,0.1565,0.1537,0.1504,0.1503,0.1411,0.1402,0.1385,0.1368,0.1335,0.1315,0.128,0.1248,0.1189,0.1177,0.1187,0.1213,0.1239,0.1228,0.1024,0.1175,0.1173,0.1172,0.1171,0.117,0.1801,0.1809,0.1756,0.1737,0.1703,0.1673,0.1673,0.1622,0.1605,0.1571,0.1523,0.1513,0.1465,0.1412,0.1384,0.1376,0.1342,0.1356,0.136,0.1366,0.1378,0.1237,0.1369,0.1368,0.1367,0.1367,0.1366,0,0.1964,0.1924,0.1907,0.1862,0.1848,0.1788,0.1747,0.174,0.1731,0.1691,0.167,0.165,0.163,0.1568,0.1541,0.1546,0.1518,0.1543,0.1544,0.1537,0.1409,0.1404,0.1566,0.1566,0.1566,0.1566,0.1566,0.1566,0.2047,0.2058,0.2015,0.2007,0.1967,0.1956,0.1938,0.191,0.1877,0.1858,0.184,0.1798,0.175,0.1718,0.1697,0.1679,0.1675,0.1709,0.1683,0.1565,0.1546,0.1528,0.1524,0.1708,0.1708,0.1813,0.1814,0.1814]},{"header":{"parameterUnit":"m.s-1","parameterCategory":1,"la1":30.2991,"la2":30.254,"lo1":-89.0895,"lo2":-89.0444,"dy":0.0017,"dx":0.0017,"nx":28,"ny":28,"refTime":"2023-08-16T21:00:00:Z","depth":0,"parameterNumber":3,"parameterNumberName":"V-component_of_WINDS"},"data":[0,0,0,0,0,0,0,0,0,0,0,0,0,0,0,0,0,0,0,0,0,0,0,0,0,0,0,0,0,0,0,0,0,0,0,0,0,0,0,0,0,0,0,0,0,0,0,0,0,0,0,0,0,0,0,0,0,0,-1.228,-1.228,0,-1.2296,-1.2297,-1.2297,-1.2295,-1.2295,-1.2294,-1.2294,-1.2313,-1.2314,-1.2315,0,0,0,0,0,0,0,0,0,0,0,0,0,-1.2249,-1.2249,-1.228,-1.228,-1.228,-1.2296,-1.2297,-1.2297,-1.2295,-1.2294,-1.2294,-1.2294,-1.2313,-1.2314,-1.2315,0,0,0,0,0,0,0,0,0,0,0,0,0,-1.2264,-1.225,-1.228,-1.2281,-1.2281,-1.2296,-1.2297,-1.2297,-1.2295,-1.2294,-1.2294,-1.2294,-1.2313,-1.2314,-1.2315,-1.233,0,0,-1.2318,-1.2319,0,0,0,0,0,0,0,0,-1.2263,-1.2265,-1.2281,-1.2281,-1.2281,-1.2293,-1.2293,-1.2308,-1.2295,-1.229,-1.2294,-1.2293,-1.2307,-1.2309,-1.2313,-1.2331,-1.2332,-1.2319,-1.2319,-1.232,-1.232,0,0,0,0,0,0,0,-1.2262,-1.2264,-1.2287,-1.2281,-1.2281,-1.2282,-1.2283,-1.2296,-1.2301,-1.229,-1.229,-1.2292,-1.2307,-1.2312,-1.2313,-1.2332,-1.2319,-1.232,-1.232,-1.2321,-1.2365,-1.2366,0,0,0,0,0,0,-1.226,-1.2263,-1.2286,-1.2287,-1.2271,-1.2283,-1.2284,-1.229,-1.23,-1.2302,-1.2292,-1.2292,-1.231,-1.2312,-1.2314,-1.2333,-1.232,-1.2321,-1.2321,-1.2365,-1.2365,-1.2366,0,0,0,0,0,0,-1.2259,-1.2262,-1.2285,-1.2275,-1.2278,-1.2284,-1.229,-1.229,-1.2295,-1.2302,-1.2303,-1.2296,-1.231,-1.2312,-1.2326,-1.2334,-1.2321,-1.2322,-1.2364,-1.2365,-1.2366,-1.2371,0,0,0,0,0,0,-1.2258,-1.2262,-1.2267,-1.2275,-1.2279,-1.2297,-1.229,-1.2291,-1.2296,-1.2296,-1.2306,-1.2307,-1.2309,-1.2325,-1.2327,-1.2335,-1.2323,-1.2364,-1.2364,-1.2365,-1.237,-1.2372,-1.2373,0,0,0,0,0,-1.2257,-1.2268,-1.2267,-1.227,-1.2285,-1.2297,-1.2299,-1.2301,-1.2297,-1.2303,-1.2308,-1.2306,-1.2332,-1.2326,-1.2329,-1.2337,-1.2363,-1.2364,-1.2365,-1.237,-1.2372,-1.2373,0,0,0,0,0,0,-1.2262,-1.2269,-1.2268,-1.2282,-1.2289,-1.2297,-1.2304,-1.2303,-1.2312,-1.2311,-1.2314,-1.2316,-1.2331,-1.2335,-1.2328,-1.2353,-1.2347,-1.2349,-1.2349,-1.2351,-1.2353,-1.2352,-1.2324,0,0,0,0,0,-1.2264,-1.2272,-1.2279,-1.2291,-1.2294,-1.2298,-1.2304,-1.2305,-1.2312,-1.2315,-1.2321,-1.2329,-1.2339,-1.2345,-1.2355,-1.2371,-1.2374,-1.2378,-1.238,-1.2381,-1.2383,-1.2392,-1.2395,-1.2369,-1.2369,-1.2369,0,0,-1.227,-1.2275,-1.228,-1.2292,-1.2297,-1.2306,-1.2301,-1.2311,-1.2318,-1.2317,-1.2331,-1.2335,-1.2344,-1.236,-1.2367,-1.2364,-1.239,-1.2382,-1.2383,-1.2384,-1.2394,-1.2396,-1.2398,-1.237,-1.237,-1.237,0,0,-1.2284,-1.2289,-1.2299,-1.2304,-1.2312,-1.2315,-1.2318,-1.2326,-1.2329,-1.2342,-1.2342,-1.2351,-1.2368,-1.2374,-1.238,-1.2397,-1.2397,-1.2401,-1.2409,-1.2418,-1.242,-1.2422,-1.2429,-1.2431,-1.2402,-1.2402,-1.2402,0,-1.229,-1.2303,-1.2305,-1.2315,-1.232,-1.2319,-1.233,-1.2336,-1.2347,-1.2351,-1.2347,-1.2369,-1.2375,-1.2392,-1.2396,-1.2401,-1.2404,-1.2399,-1.2419,-1.2421,-1.2423,-1.2429,-1.2432,-1.2402,-1.2402,-1.2402,-1.2402,0,-1.231,-1.232,-1.2327,-1.2337,-1.2344,-1.2354,-1.2358,-1.2364,-1.2365,-1.2369,-1.2383,-1.239,-1.2401,-1.2405,-1.2406,-1.2423,-1.2421,-1.2418,-1.2413,-1.2426,-1.2432,-1.2434,-1.2403,-1.2403,-1.2403,-1.2403,0,0,-1.2328,-1.2339,-1.2341,-1.2346,-1.2355,-1.2363,-1.2374,-1.2384,-1.239,-1.2398,-1.2407,-1.2422,-1.242,-1.2426,-1.2428,-1.2436,-1.245,-1.2432,-1.2433,-1.2436,-1.247,-1.2472,-1.2475,-1.245,-1.245,-1.2451,-1.2469,0,-1.2344,-1.2362,-1.2364,-1.2381,-1.239,-1.2389,-1.2399,-1.2406,-1.241,-1.2419,-1.2423,-1.2433,-1.2429,-1.2433,-1.2441,-1.2447,-1.2457,-1.2445,-1.246,-1.246,-1.2458,-1.2478,-1.248,-1.2497,-1.2472,-1.2472,-1.2472,0,-1.2364,-1.2372,-1.239,-1.2398,-1.2402,-1.241,-1.242,-1.2428,-1.2437,-1.2439,-1.2446,-1.2447,-1.2459,-1.2453,-1.247,-1.2462,-1.2469,-1.2472,-1.2473,-1.2475,-1.2467,-1.2481,-1.2502,-1.2505,-1.2476,-1.2476,-1.2475,0,-1.2376,-1.2391,-1.2404,-1.2408,-1.2417,-1.2424,-1.2428,-1.2436,-1.2442,-1.2451,-1.2455,-1.2466,-1.2472,-1.248,-1.2484,-1.2479,-1.2502,-1.2496,-1.2505,-1.2505,-1.251,-1.251,-1.2534,-1.2513,-1.2513,-1.2513,-1.2513,0,-1.2393,-1.2404,-1.2409,-1.2417,-1.2429,-1.2432,-1.2444,-1.2449,-1.2456,-1.2465,-1.2466,-1.2474,-1.2479,-1.2489,-1.2492,-1.2507,-1.2509,-1.2512,-1.2513,-1.2512,-1.2512,-1.2517,-1.2516,-1.2514,-1.2514,-1.2513,-1.2513,0,-1.2408,-1.2412,-1.2426,-1.2434,-1.2436,-1.2445,-1.2452,-1.246,-1.2464,-1.2476,-1.2479,-1.2485,-1.2497,-1.2502,-1.2516,-1.2519,-1.2535,-1.2535,-1.2532,-1.2533,-1.2542,-1.2541,-1.257,-1.2574,-1.2551,-1.2551,-1.2551,0,-1.2419,-1.2428,-1.2437,-1.2443,-1.2447,-1.2457,-1.2463,-1.2466,-1.2473,-1.2483,-1.249,-1.2502,-1.2511,-1.253,-1.2537,-1.2548,-1.2549,-1.2558,-1.255,-1.255,-1.2549,-1.2549,-1.255,-1.2559,-1.256,-1.256,-1.256,0,-1.2439,-1.244,-1.2449,-1.2459,-1.2466,-1.2474,-1.2482,-1.2487,-1.2491,-1.2499,-1.251,-1.2518,-1.2532,-1.2544,-1.2556,-1.2562,-1.2562,-1.2562,-1.2565,-1.2565,-1.2563,-1.2565,-1.2537,-1.2562,-1.2561,-1.2561,-1.2561,-1.2561,-1.2453,-1.246,-1.2468,-1.2478,-1.2484,-1.2491,-1.2499,-1.2504,-1.2513,-1.2525,-1.2527,-1.2539,-1.2549,-1.2564,-1.257,-1.2581,-1.2579,-1.2583,-1.2584,-1.2585,-1.2586,-1.2561,-1.2583,-1.2583,-1.2583,-1.2583,-1.2583,0,-1.2472,-1.2477,-1.2486,-1.2497,-1.2505,-1.2504,-1.2512,-1.252,-1.2531,-1.2539,-1.2548,-1.2562,-1.2573,-1.2581,-1.2593,-1.26,-1.26,-1.2603,-1.2603,-1.2604,-1.2587,-1.2583,-1.2602,-1.2602,-1.2602,-1.2602,-1.2602,-1.2602,-1.2484,-1.2497,-1.2499,-1.2515,-1.2521,-1.2532,-1.2538,-1.2545,-1.2551,-1.2566,-1.2576,-1.258,-1.2589,-1.2601,-1.2612,-1.2614,-1.2619,-1.2622,-1.2624,-1.2607,-1.2605,-1.2603,-1.26,-1.2622,-1.2623,-1.264,-1.264,-1.264]}]]